This is the latest recevied weather packets stored in our database for station/object W4FXD. If no packets are shown the sender has not sent any weather packets the latest 1 day(s).
| Time | Temp. | Humidity | Pressure | Rain* | Wind** | Luminosity | Snow |
|---|---|---|---|---|---|---|---|
| 1777989352 | 18.33° C | 64% | 1015.2 hPa | 0 mm | 0.89 m/s, 180° | 367 W/m² | - |
| 1777989049 | 17.78° C | 64% | 1015.2 hPa | 0 mm | 0.45 m/s, 158° | 352 W/m² | - |
| 1777988744 | 17.78° C | 64% | 1015.1 hPa | 0 mm | 0.45 m/s, 159° | 366 W/m² | - |
| 1777988442 | 17.22° C | 65% | 1015.3 hPa | 0 mm | 0 m/s | 327 W/m² | - |
| 1777988139 | 17.22° C | 67% | 1015.3 hPa | 0 mm | 0.45 m/s, 162° | 321 W/m² | - |
| 1777987835 | 17.22° C | 67% | 1015.2 hPa | 0 mm | 0.45 m/s, 164° | 273 W/m² | - |
| 1777987532 | 16.67° C | 68% | 1015.2 hPa | 0 mm | 0.45 m/s, 155° | 236 W/m² | - |
| 1777987229 | 16.67° C | 69% | 1015.2 hPa | 0 mm | 0.45 m/s, 153° | 216 W/m² | - |
| 1777986925 | 16.67° C | 71% | 1015.1 hPa | 0 mm | 0.45 m/s, 157° | 208 W/m² | - |
| 1777986624 | 16.67° C | 71% | 1015.3 hPa | 0 mm | 0 m/s | 237 W/m² | - |
| 1777986321 | 16.67° C | 71% | 1015.2 hPa | 0 mm | 0.45 m/s, 154° | 201 W/m² | - |
| 1777986020 | 16.67° C | 72% | 1015.1 hPa | 0 mm | 0 m/s | 196 W/m² | - |
| 1777985716 | 16.11° C | 74% | 1015.1 hPa | 0 mm | 0 m/s | 190 W/m² | - |
| 1777985413 | 16.11° C | 76% | 1015.1 hPa | 0 mm | 0.45 m/s, 160° | 171 W/m² | - |
| 1777985109 | 16.11° C | 76% | 1015.1 hPa | 0 mm | 0.45 m/s, 156° | 189 W/m² | - |
| 1777984806 | 15.56° C | 77% | 1015 hPa | 0 mm | 0 m/s | 184 W/m² | - |
| 1777984502 | 15.56° C | 77% | 1015.1 hPa | 0 mm | 0 m/s | 173 W/m² | - |
| 1777984198 | 15° C | 78% | 1014.9 hPa | 0 mm | 0 m/s | 182 W/m² | - |
| 1777983895 | 14.44° C | 81% | 1014.9 hPa | 0 mm | 0 m/s | 166 W/m² | - |
| 1777983592 | 14.44° C | 81% | 1015 hPa | 0 mm | 0 m/s | 90 W/m² | - |
| 1777983289 | 13.89° C | 83% | 1014.9 hPa | 0 mm | 0 m/s | 93 W/m² | - |
| 1777982985 | 13.89° C | 84% | 1014.8 hPa | 0 mm | 0.45 m/s, 136° | 85 W/m² | - |
| 1777982682 | 13.33° C | 85% | 1014.7 hPa | 0 mm | 0 m/s | 83 W/m² | - |
| 1777982381 | 12.78° C | 85% | 1014.8 hPa | 0 mm | 0 m/s | 69 W/m² | - |
| 1777982077 | 12.78° C | 86% | 1014.7 hPa | 0 mm | 0 m/s | 62 W/m² | - |
* Rain latest hour (hover to see other rain measurements)
** Current wind speed in m/s (hover to see current wind gust speed)